Regional Weather Roundup
Issued by NWS Upton, NY

Current Version | Previous Version | Text Only | Print | Product List | Glossary On
Versions: 1 2 3 4 5 6 7 8 9 10 11 12 13 14 15 16 17 18 19 20 21 22 23 24 25 26 27 28
000 ASUS41 KOKX 240709 RWROKX REGIONAL WEATHER ROUNDUP NATIONAL WEATHER SERVICE NEW YORK NY 300 AM EDT WED MAY 24 2017 NOTE: "FAIR" INDICATES FEW OR NO CLOUDS BELOW 12,000 FEET WITH NO SIGNIFICANT WEATHER AND/OR OBSTRUCTIONS TO VISIBILITY. NYZ071-072-176-178-NJZ106-104-240800- NEW YORK CITY METRO AREA CITY SKY/WX TMP DP RH WIND PRES REMARKS Central Park CLOUDY 60 51 72 CALM 29.77S Wall St Helipt CLOUDY 61 50 67 E5 29.76S Bronx Bot Gard N/A 59 48 67 CALM 29.77R LaGuardia APRT CLOUDY 60 51 72 E3 29.75R Kennedy INTL CLOUDY 59 53 80 E5 29.76S Breezy Point N/A 57 N/A N/A E5 N/A Newark/Liberty CLOUDY 62 47 57 SE5 29.74S Teterboro CLOUDY 60 54 80 NE5 29.73F $$ NYZ177-179-078>081-240800- LONG ISLAND NEW YORK CITY SKY/WX TMP DP RH WIND PRES REMARKS Jones Beach N/A 57 N/A N/A SE5 N/A Matinecock PT NOT AVBL Farmingdale LGT RAIN 58 52 80 CALM 29.75F MacArthur/ISP LGT RAIN 57 53 86 CALM 29.75S Shirley LGT RAIN 56 53 90 SE3 29.76F Mt Sinai Harb N/A 57 N/A N/A MISG N/A Westhampton CLOUDY 56 52 86 NE3 29.77F East Hampton CLOUDY 55 52 91 SE3 29.76F Montauk N/A 56 54 93 CALM 29.78F $$ NYZ052-065-067-240800- HUDSON VALLEY CITY SKY/WX TMP DP RH WIND PRES REMARKS White Plains CLOUDY 58 51 78 CALM 29.74F Larchmont Harb N/A 57 N/A N/A MISG N/A Croton O-T Hud N/A 57 N/A N/A MISG N/A Newburgh MOCLDY 55 54 94 CALM 29.77S Montgomery CLOUDY 52 51 97 W3 29.75F Poughkeepsie CLOUDY 53 51 93 CALM 29.75F Albany CLOUDY 54 50 86 CALM 29.77F $$ NJZ001-105-106-008-010-013-015-019>022-104-240800- NEW JERSEY CITY SKY/WX TMP DP RH WIND PRES REMARKS Newark/Liberty CLOUDY 62 47 57 SE5 29.74S Teterboro CLOUDY 60 54 80 NE5 29.73F Caldwell CLOUDY 59 52 77 NE3 29.75F Somerville CLOUDY 56 55 97 CALM 29.73S Linden CLOUDY 59 47 65 CALM 29.76R Perth Amboy N/A 59 N/A N/A E6 N/A Sussex CLOUDY 53 51 93 CALM 29.76F Andover N/A 54 52 93 NE3 29.75F Trenton CLOUDY 58 55 90 CALM 29.74S Millville LGT RAIN 56 56 100 NE5 29.72F Atlantic City LGT RAIN 57 55 93 N5 29.72S Wrightstown LGT RAIN 56 53 91 NE5 29.72S Toms River LGT RAIN 55 55 100 NW7 29.76R Belmar LGT RAIN 56 53 90 CALM 29.77R $$ PAZ047>061-062-071-240800- EASTERN PENNSYLVANIA CITY SKY/WX TMP DP RH WIND PRES REMARKS Philadelphia LGT RAIN 58 51 78 NE5 29.74F Allentown CLOUDY 57 53 86 NE6 29.73F Scranton CLOUDY 54 49 83 E3 29.75F $$ CTZ002-004>006-009-010-012-RIZ004-006-007-MAZ004-011-015-240800- SOUTHERN NEW ENGLAND IN CT CITY SKY/WX TMP DP RH WIND PRES REMARKS Bradley INTL CLOUDY 55 53 93 N3 29.77F Hartford CLOUDY 57 52 83 CALM 29.76F Danbury CLOUDY 53 53 100 CALM 29.77F Wtrbury/Oxford N/A 55 48 76 CALM 29.77F Bridgeport CLOUDY 60 53 77 NE6 29.75F Meriden CLOUDY 55 52 89 NW3 29.76F New Haven CLOUDY 56 53 90 NE3 29.76S Chester N/A 55 54 94 MISG 29.77S Groton CLOUDY 56 53 90 E5 29.76F Wilimantic CLOUDY 56 53 90 N3 29.78F IN RI CITY SKY/WX TMP DP RH WIND PRES REMARKS Providence CLOUDY 56 55 97 CALM 29.78F Block Island NOT AVBL Westerly CLOUDY 56 54 93 N3 29.78F IN MA CITY SKY/WX TMP DP RH WIND PRES REMARKS Boston CLOUDY 56 54 93 S7 29.79F Worcester CLOUDY 59 44 57 CALM 29.79F Westfield LGT RAIN 53 53 100 CALM 29.78S Provincetown CLOUDY 54 52 93 S6 29.80F Nantucket CLOUDY 52 50 93 CALM 29.80F $$ ANZ330-335-338-340-345-350-353-355-240800- COASTAL MARINE OBSERVATIONS STATION/POSITION TIME SKY/WX TEMP WIND PRES VSBY WAVE AIR SEA DIR/SP/G HT/PER (UTC) (F) (DEG/KT/KT) (MB) (MI) (FT/S) NY HARB ENTRANCE 0550 58 58 80/ 8/ 10 1007.4 3/ 7 20 S FIRE ISLAND 0650 56 55 80/ 10/ 10 1006.5 3/ 7 GREAT SOUTH BAY 0615 59 64 110/ 10/ 12 N/A 23 SSW MONTAUK P 0550 55 56 1008.6 3/ 7 15 E BARNEGAT LI 0630 57 N/A 3/ 7 HUDSON CANYON 0550 55 54 70/ 14/ 16 1005.7 3/ 7 KINGS POINT 0642 210/ 1/ 1 1007.3 EXECUTION ROCKS 0645 59 N/A CENTRAL LI SOUND 0630 57 90/ 4/ 4 N/A 0 EASTERN LI SOUND NOT AVBL ROBBINS REEF 0642 180/ 9/ 9 1007.7 $$ >>>>>>>>>>>>>>>>>>>>>>>>>>>> KEY <<<<<<<<<<<<<<<<<<<<<<<<<<< > < > SKY/WX - Sky Condition/Present Weather < > TMP - Temperature in Fahrenheit < > DP - Dew Point in Fahrenheit < > RH - Relative Humidity in Percent < > WIND - Direction (from) and Speed in MPH < > PRES - Mean Sea Level Pressure (inches of Hg) < > WCI - Wind Chill Index < > VSB - VISIBILITY IN MILES < > HX - HEAT INDEX < > TC - TEMPERATURE IN CELSIUS < > VRB - VARIABLE WIND DIRECTION < > < >>>>>>>>>>>>>>>>>>>>>>>>>>>> KEY <<<<<<<<<<<<<<<<<<<<<<<<<<<

USA.gov is the U.S. government's official web portal to all federal, state and local government web resources and services.